GFSSGP_850_spd_255.txt.gz
Wind_Speed
5 1 5 2 1 3 3 3 2 4 3 2 19 8 10 12 0 3 24 19 24 22 21 19 18 17 18 19 20 20 19 24 26 27 32 31 28 28 22 20 21 20 22 22 21 20 20 19 18
3 2 1 0 3 3 2 3 3 1 9 23 16 11 10 5 8 23 27 21 23 22 22 20 20 18 19 19 20 20 19 21 23 27 28 29 27 20 20 20 20 21 20 20 19 19 16 14 12
1 2 2 1 2 3 4 3 8 13 10 9 6 12 5 5 19 28 22 28 24 23 22 21 20 19 18 18 19 20 20 20 21 20 21 19 18 19 18 18 18 19 19 18 17 15 14 15 14
2 1 2 2 2 2 6 8 17 9 14 13 13 7 11 8 16 20 27 26 24 23 22 21 19 18 17 18 19 21 21 22 23 18 17 17 18 17 16 16 17 17 17 15 14 13 13 14 13
3 2 3 2 2 5 8 16 15 6 6 14 9 7 6 13 18 23 27 25 23 23 21 20 18 17 17 20 20 21 21 22 24 19 17 17 16 15 15 16 16 15 15 14 13 13 13 13 11
3 2 4 3 2 4 8 17 13 16 20 21 18 13 5 18 19 23 24 23 22 22 21 19 18 17 19 21 20 21 21 21 21 19 18 17 15 16 16 18 16 15 15 14 15 15 12 10 8
5 3 3 8 7 3 6 15 12 18 19 12 18 4 15 21 21 25 23 21 20 20 20 18 18 18 20 20 20 20 21 19 19 18 17 16 16 16 17 17 17 17 17 19 21 16 13 10 8
7 2 5 2 5 4 9 5 15 18 7 21 27 7 12 25 23 22 20 22 21 20 20 20 19 20 20 19 19 19 19 19 18 17 16 16 16 16 18 17 17 18 20 21 19 15 10 7 4
8 3 3 2 1 2 7 2 14 3 23 8 7 22 28 27 25 20 22 23 22 21 20 21 21 20 20 19 20 19 19 19 18 17 16 16 18 19 19 18 18 21 21 20 16 13 10 5 2
3 2 6 6 1 2 11 12 11 10 18 15 21 28 30 29 25 22 26 26 24 22 21 20 21 21 21 21 19 20 20 20 19 18 17 17 19 20 19 20 21 22 21 18 15 11 8 4 2
4 2 3 6 9 7 7 7 5 22 5 26 33 34 32 32 27 23 25 24 23 22 22 20 19 20 20 20 19 18 19 19 18 18 18 18 20 21 22 23 23 21 18 15 11 7 4 1 1
3 4 1 4 4 3 6 10 11 15 10 31 34 37 35 33 30 25 24 24 24 25 22 21 19 19 20 19 18 18 19 19 19 19 18 18 21 21 22 23 20 18 15 15 12 10 6 5 3
4 7 3 2 4 8 12 19 10 15 26 33 35 35 35 32 29 25 22 22 24 23 24 21 19 19 19 19 18 18 19 20 20 17 18 20 20 23 26 22 16 15 15 16 14 10 6 6 4
9 12 7 8 8 22 14 4 13 16 29 36 37 37 35 32 30 28 27 25 23 24 25 22 18 19 18 18 17 16 18 21 20 19 20 21 22 25 24 19 14 14 13 13 12 7 3 2 1
20 9 9 9 9 8 7 4 6 32 32 33 34 38 36 33 30 28 27 27 25 23 22 21 18 14 17 15 18 15 17 21 22 20 20 22 26 27 21 16 13 13 13 12 9 3 1 1 5
3 5 4 6 6 7 3 5 6 30 32 29 31 36 36 33 32 28 28 27 27 24 20 18 18 16 16 19 18 17 17 19 21 20 22 26 26 24 20 15 14 13 13 10 6 1 2 3 2
4 3 6 5 19 4 9 2 14 27 29 28 29 30 33 35 33 33 29 29 29 26 22 21 20 18 16 18 21 19 18 18 19 21 25 28 24 21 19 16 17 14 12 7 3 3 4 2 3
4 4 2 6 5 12 8 7 15 27 28 30 29 32 30 36 36 35 34 30 29 26 24 21 22 20 20 20 21 19 19 20 19 19 25 27 23 18 14 15 13 14 10 6 3 5 2 2 7
5 3 7 9 9 8 17 5 15 27 23 25 28 29 32 32 39 36 37 34 34 30 28 23 23 24 25 23 23 21 19 19 19 20 20 26 22 17 16 15 13 11 8 6 6 4 4 5 8
5 7 6 9 9 7 5 14 14 25 29 33 34 30 34 36 37 41 41 40 36 32 29 26 22 27 28 25 23 19 17 15 14 20 24 24 23 20 20 17 14 12 11 7 7 5 6 9 8
4 6 5 7 10 9 1 3 13 18 21 29 30 37 37 40 41 43 47 44 39 36 32 28 22 24 27 29 25 21 19 17 17 19 23 27 24 22 21 18 17 14 11 10 10 9 9 11 8
4 1 7 7 7 4 5 6 5 13 16 21 30 32 38 39 45 48 49 48 45 39 34 31 26 25 28 31 27 25 23 23 21 20 24 26 24 22 19 18 17 16 13 13 12 15 13 10 9
8 3 5 6 6 2 5 0 7 12 11 16 28 35 38 43 47 53 53 50 47 42 39 34 31 28 31 34 31 30 26 23 21 23 23 27 26 23 20 20 20 19 17 13 14 11 12 12 10
9 5 3 1 3 1 7 6 6 6 11 21 31 40 42 45 46 52 54 50 48 45 43 38 35 31 31 34 35 33 28 25 23 25 26 23 28 27 24 22 20 21 20 17 14 14 12 14 14
10 6 5 5 3 6 2 3 14 7 12 18 24 41 44 43 46 47 53 55 52 50 47 43 39 35 34 36 37 36 32 27 26 24 24 25 26 26 30 28 23 25 21 19 19 17 16 16 16
5 5 5 4 3 6 9 6 6 10 25 23 30 43 45 42 45 49 55 59 56 52 49 47 42 37 35 38 39 38 35 32 28 25 23 23 23 25 24 31 28 23 25 25 23 22 21 20 19
5 1 5 4 3 1 5 9 9 11 12 14 23 31 40 43 46 51 55 59 58 55 52 49 45 40 36 41 40 39 38 35 31 28 28 28 26 23 20 25 29 29 25 21 21 23 23 23 22
4 3 5 4 3 5 5 6 6 10 16 10 11 25 39 42 45 48 50 58 59 57 52 50 47 43 38 39 43 44 42 37 35 31 29 28 27 29 25 21 19 19 21 19 17 17 18 18 18
6 4 3 3 3 3 5 5 7 9 16 15 11 27 36 38 44 47 51 56 60 58 55 52 50 46 41 39 41 46 46 41 36 34 32 31 26 28 29 25 20 24 23 21 20 19 20 20 17
5 2 3 4 7 3 4 6 11 7 9 13 11 19 26 31 34 34 37 42 52 55 56 55 51 48 44 39 43 44 48 44 39 36 36 34 28 28 27 27 25 24 25 25 21 20 19 19 18

GFSSGP_850_spd_258.txt.gz
Wind_Speed
6 4 5 4 3 4 3 4 2 5 3 2 18 5 7 5 2 2 21 23 24 20 18 15 15 14 15 16 18 20 19 20 24 30 23 22 21 22 17 17 17 20 21 20 21 19 18 18 17
3 5 4 2 4 3 3 3 5 3 8 23 16 11 7 4 4 17 23 23 22 20 18 17 14 14 15 15 17 19 22 25 29 28 23 25 23 17 16 17 17 19 18 18 18 16 14 13 13
3 5 2 2 3 3 3 1 5 12 8 6 7 11 4 3 12 28 20 26 22 21 19 17 16 15 15 16 16 18 20 25 24 24 24 18 16 16 17 16 15 17 18 17 17 17 17 15 16
2 3 2 3 2 2 4 5 6 5 10 7 18 9 8 5 26 16 26 24 23 21 20 18 16 15 15 16 17 18 19 20 19 18 16 16 15 17 16 15 14 14 14 14 16 15 16 16 15
3 3 3 2 4 3 5 11 5 2 5 10 8 6 8 12 11 22 26 24 23 21 20 18 16 14 14 15 17 18 17 17 17 16 15 15 14 13 14 13 12 11 12 12 14 14 15 13 12
3 2 4 4 4 5 4 8 4 4 7 12 14 9 4 10 19 25 23 23 21 20 18 17 15 13 15 16 17 19 20 17 13 14 14 14 14 13 13 12 11 9 9 11 14 15 14 13 15
3 2 2 1 4 3 4 6 4 5 12 5 12 5 10 18 21 24 23 21 21 18 18 16 15 15 15 16 17 19 19 17 14 13 13 14 14 12 12 12 11 11 13 16 15 14 13 14 15
4 2 4 3 2 3 5 3 10 5 4 15 11 7 10 22 23 24 22 22 20 19 17 16 16 17 17 16 16 17 17 16 15 13 13 14 13 13 13 13 13 14 17 17 14 11 12 12 12
5 4 1 1 1 3 8 4 11 1 13 1 1 22 23 26 24 23 22 21 20 20 17 17 17 19 18 17 16 14 15 15 15 13 13 15 14 15 14 14 14 16 16 14 11 11 11 12 13
3 2 4 2 2 4 7 1 7 4 9 5 18 23 25 26 24 23 25 25 23 22 20 18 19 19 19 18 17 16 15 15 16 15 15 16 15 15 15 15 16 16 14 12 9 8 7 8 10
2 0 2 7 4 2 3 5 4 14 3 10 30 30 28 26 24 21 23 23 24 23 22 22 20 20 19 20 18 17 17 16 16 15 16 16 17 17 16 16 18 16 12 9 6 4 4 7 8
2 3 3 3 5 1 2 3 1 16 4 20 29 29 29 27 23 21 24 22 22 23 22 22 20 20 20 19 18 16 16 16 15 15 16 17 19 19 19 19 17 15 11 8 5 4 6 8 8
2 7 4 5 6 6 7 3 4 21 1 23 28 29 27 26 21 19 21 21 22 23 22 22 22 21 20 18 17 17 17 17 16 16 15 17 19 22 21 20 16 14 10 7 6 4 5 6 6
11 13 6 3 7 7 11 7 10 12 16 25 29 29 27 27 24 22 21 22 23 23 22 22 22 21 19 18 18 17 18 18 18 16 16 17 20 22 21 18 15 12 10 9 7 3 1 2 3
16 6 7 7 4 5 13 3 4 17 24 30 30 30 28 27 26 24 23 20 21 24 24 22 20 21 20 18 17 18 18 19 20 17 18 17 20 25 22 16 13 11 10 10 7 2 1 2 3
2 3 3 3 3 6 3 6 5 26 30 27 30 31 30 28 27 24 25 23 22 23 22 19 20 20 19 17 15 14 17 21 21 18 20 19 23 25 21 16 12 11 9 9 6 2 1 1 3
1 3 3 5 11 3 8 5 4 29 26 26 27 29 31 29 28 28 26 25 24 22 21 20 18 18 20 18 19 14 14 18 21 21 21 21 24 25 20 15 12 10 9 8 5 3 1 2 4
2 2 1 6 8 14 8 12 5 24 27 26 27 30 30 32 32 30 28 27 26 24 21 20 19 16 17 20 19 18 16 16 21 22 23 23 24 23 19 16 14 11 11 8 4 3 2 3 6
2 3 4 5 5 7 15 11 11 21 21 22 27 28 32 36 33 31 30 29 29 29 27 23 22 20 19 20 22 21 19 18 18 23 24 26 24 22 19 17 14 11 12 8 4 3 4 5 9
3 2 4 5 2 8 7 14 9 22 30 33 31 31 33 36 35 35 34 34 32 31 30 27 24 22 22 21 22 20 18 17 17 17 24 26 25 21 17 14 12 12 10 7 5 6 5 7 9
3 1 3 4 7 3 1 5 8 14 21 24 27 32 33 40 41 38 38 38 36 35 34 30 26 22 25 25 22 22 21 19 19 21 22 26 26 21 17 15 14 12 13 10 9 9 8 8 7
2 5 3 5 4 2 3 4 4 7 18 17 29 32 35 38 42 42 41 41 42 38 36 33 29 25 25 29 26 26 23 23 21 21 23 25 25 22 20 19 17 16 15 11 10 10 12 12 7
6 4 5 3 4 1 2 2 6 6 11 18 26 35 40 46 46 47 45 45 44 42 40 36 32 28 27 31 30 30 25 21 17 17 19 23 25 23 23 20 19 19 17 15 12 12 11 11 9
5 1 5 4 3 1 6 6 5 6 13 17 26 37 43 45 49 50 48 45 46 45 43 41 37 32 29 31 33 33 30 24 23 21 20 21 24 24 24 21 19 19 19 18 14 12 12 12 12
11 6 3 3 0 5 2 0 7 6 5 8 18 35 42 42 41 48 50 49 50 50 48 45 41 37 32 32 34 35 30 27 26 25 23 23 23 27 26 24 22 21 18 19 17 16 15 14 15
5 4 4 3 3 5 5 6 5 7 14 20 24 30 34 38 44 49 54 53 52 53 51 49 45 42 38 35 35 38 34 33 30 28 24 24 25 22 24 27 26 23 19 19 19 19 19 19 20
5 3 2 2 2 2 4 8 8 7 10 14 19 16 29 39 44 52 55 56 52 55 54 52 48 44 42 38 36 39 37 38 35 30 27 24 21 21 22 24 24 26 25 21 20 23 22 23 23
3 3 3 3 2 4 5 5 5 10 13 20 24 22 23 33 42 45 50 56 55 53 55 52 48 45 43 41 38 38 40 39 37 33 30 27 25 23 24 23 23 22 25 26 25 21 18 17 17
5 4 3 3 4 4 3 6 5 5 9 20 25 31 33 24 39 44 48 53 56 53 53 55 51 48 47 43 40 39 42 43 40 38 34 29 27 24 25 23 23 22 19 22 22 22 20 19 19
4 4 4 4 6 2 2 6 10 8 18 24 34 37 40 23 29 37 38 39 46 51 51 54 54 51 47 44 42 39 42 43 42 41 37 33 31 27 23 23 23 23 22 24 26 26 24 21 21

GFSSGP_850_spd_261.txt.gz
Wind_Speed
4 3 5 1 1 2 4 4 2 12 8 2 17 3 6 5 1 2 16 19 19 17 15 13 12 12 14 15 16 15 15 18 26 20 16 20 17 16 16 15 17 18 19 19 19 19 18 16 15
3 3 4 1 3 5 5 5 9 4 8 19 12 9 4 4 4 10 20 20 18 16 15 13 12 12 13 14 15 17 21 27 23 19 18 22 16 14 15 17 16 17 17 17 16 15 15 14 15
3 4 2 2 3 3 4 7 11 16 12 7 5 6 3 3 9 18 18 23 19 16 14 12 11 12 12 13 16 19 25 25 22 23 26 16 15 15 15 14 13 16 17 16 16 17 16 16 16
3 3 1 3 8 5 4 10 14 12 7 5 10 8 5 1 15 15 23 22 18 17 15 13 12 12 12 13 16 20 22 22 21 18 18 15 14 14 13 13 15 15 15 14 16 17 16 16 17
3 2 2 5 8 5 9 13 7 4 4 7 2 6 10 7 8 20 23 19 19 18 16 14 12 12 13 13 15 16 18 18 16 14 14 12 12 12 11 11 12 12 12 14 16 16 16 19 18
1 1 2 5 6 7 6 5 5 7 7 9 13 12 4 6 14 22 20 19 17 17 17 14 12 11 12 15 15 15 14 14 13 14 12 11 11 10 10 9 9 10 12 15 15 15 15 17 19
2 2 3 7 9 4 4 4 4 6 9 8 12 7 7 12 19 21 20 18 17 15 16 14 12 11 12 14 14 15 15 13 12 13 12 11 11 10 9 9 9 11 14 15 15 14 15 16 18
3 3 2 2 4 5 6 3 11 9 5 13 8 5 9 16 21 21 20 18 16 15 14 13 12 12 14 13 14 13 12 10 11 12 11 10 11 10 10 11 12 15 16 14 14 14 16 16 17
2 2 3 3 3 5 5 5 4 3 14 3 1 11 15 22 21 20 20 17 15 15 14 14 13 15 14 14 14 13 12 11 11 11 10 10 10 11 11 12 15 17 15 13 11 13 14 14 16
2 2 3 2 4 4 2 8 6 6 10 4 12 15 22 22 22 21 21 19 16 15 16 15 15 16 15 16 15 13 12 12 13 11 10 10 10 11 12 13 14 15 12 9 9 11 12 14 14
1 3 7 4 8 5 3 8 4 14 6 7 21 24 23 22 20 20 19 19 19 19 15 17 17 16 16 14 15 13 12 12 13 12 11 11 12 11 12 14 14 12 9 7 8 10 12 13 13
2 5 3 4 5 3 7 4 5 12 2 9 23 24 23 21 20 20 19 20 19 20 18 18 18 17 16 15 14 13 12 13 13 12 11 12 13 12 13 14 12 10 7 5 6 9 11 11 11
1 3 4 5 7 6 1 6 3 13 5 20 22 22 21 19 17 17 18 18 18 20 20 19 19 18 15 15 14 13 13 13 13 12 12 13 14 14 14 14 12 9 5 4 5 7 8 9 10
4 3 5 4 2 2 2 3 7 10 15 22 22 22 19 19 17 16 20 20 20 20 20 20 20 18 17 16 15 13 13 13 12 12 12 14 15 16 15 14 10 7 5 4 2 4 6 6 7
6 2 2 7 1 1 4 3 5 14 19 24 22 20 19 17 16 17 19 20 20 20 20 20 20 19 19 17 16 15 15 15 14 13 13 15 17 17 16 14 10 7 6 4 1 3 5 4 6
2 2 4 4 1 2 1 1 6 17 22 23 24 21 19 19 20 18 18 16 18 21 21 20 20 20 19 18 16 15 16 16 17 14 14 15 17 19 17 13 9 9 6 6 4 3 4 5 7
2 3 5 3 5 1 3 1 3 17 19 22 23 23 21 20 20 21 21 18 18 19 21 20 19 19 18 17 16 15 15 17 17 17 17 16 18 22 19 13 10 9 6 5 3 4 3 4 6
4 3 2 4 2 4 7 12 3 14 18 21 24 23 24 23 24 24 24 22 21 21 20 19 18 18 19 18 18 17 15 15 19 20 19 18 19 21 18 14 10 9 5 5 4 4 4 6 8
2 1 6 5 3 3 10 16 11 16 19 20 23 24 25 25 23 23 25 25 24 24 24 21 21 20 20 22 21 21 18 15 17 20 21 20 21 22 19 15 11 9 6 5 4 4 5 8 9
3 1 2 4 2 4 10 14 12 17 25 27 27 27 27 25 25 25 27 28 28 27 27 25 23 22 21 20 22 20 18 16 15 19 21 22 22 23 20 16 14 11 8 6 5 5 6 9 9
2 4 2 4 7 4 7 5 3 6 18 22 25 26 27 29 29 28 32 32 31 31 30 29 26 24 23 21 21 20 18 16 17 17 22 24 24 23 20 17 15 11 10 7 6 7 6 8 9
4 2 7 9 7 4 4 5 4 6 13 20 26 28 30 31 30 30 33 36 36 34 32 30 29 27 26 25 24 23 21 20 20 19 20 24 26 25 22 18 15 13 11 10 9 9 8 9 7
2 11 8 8 7 4 6 5 1 2 8 16 24 31 33 33 34 34 36 38 37 36 35 34 32 31 29 28 29 25 24 21 19 20 21 22 25 26 23 20 16 15 14 16 12 10 10 9 8
8 3 1 2 4 10 11 8 8 6 7 6 16 23 29 33 35 36 33 36 39 37 38 38 36 34 32 30 31 32 28 25 23 21 21 23 25 25 25 22 20 17 16 16 15 13 11 10 10
10 3 3 4 7 12 4 6 9 4 2 5 14 15 23 30 34 36 37 39 45 43 41 41 40 38 35 33 32 33 32 29 26 24 22 22 22 24 24 24 23 21 18 18 17 16 13 12 13
5 3 2 4 4 4 1 6 2 1 8 13 17 16 18 17 27 35 40 43 49 48 45 44 43 41 39 36 34 33 33 33 31 28 26 24 22 21 22 24 24 23 19 18 16 16 16 17 18
2 2 3 4 0 5 5 6 9 2 10 23 24 24 24 23 17 28 36 41 48 51 51 49 45 43 42 40 35 34 34 36 34 31 30 28 25 24 22 21 24 26 25 23 21 18 17 18 18
3 2 4 3 3 5 4 5 7 9 17 20 26 33 32 30 24 23 32 41 44 48 50 49 47 45 42 42 40 37 35 36 38 33 33 32 26 23 23 22 20 21 22 20 23 24 23 21 17
1 3 1 1 3 4 5 4 2 9 14 19 27 29 31 34 31 30 24 34 40 37 41 50 48 48 46 45 42 41 39 37 38 37 36 34 30 27 25 22 21 21 20 18 19 21 22 21 19
2 4 3 2 4 3 4 8 11 11 20 22 29 31 35 33 32 32 20 27 33 39 40 45 49 50 48 45 43 43 40 39 39 41 39 37 34 31 28 26 24 21 22 22 22 20 20 23 21

GFSSGP_850_spd_264.txt.gz
Wind_Speed
3 3 3 1 4 2 10 8 10 13 10 5 12 2 10 12 9 7 19 14 17 13 11 12 13 14 14 13 12 14 15 20 19 15 18 18 17 16 16 18 19 19 18 19 19 18 17 16 15
2 1 2 4 2 9 8 10 10 8 10 17 11 8 5 10 11 18 18 18 16 14 12 10 13 13 13 12 13 16 20 23 19 17 16 16 16 15 18 18 19 17 16 15 16 17 18 17 15
1 2 2 2 4 11 10 9 11 14 14 11 5 7 4 6 13 16 18 19 16 13 12 11 12 12 13 15 17 26 26 21 20 21 16 16 16 16 15 16 16 15 16 16 17 18 17 16 16
2 2 2 2 13 12 10 10 10 11 8 4 8 9 9 8 12 14 20 18 15 13 11 12 12 12 14 19 24 24 24 24 25 17 16 15 15 14 14 15 14 14 15 16 18 18 18 18 17
2 3 4 6 14 9 11 9 5 5 5 6 1 7 13 8 14 20 18 16 14 13 11 12 12 12 14 17 20 22 21 22 27 16 14 13 13 13 12 12 13 13 15 17 19 18 17 19 18
3 3 6 7 14 11 9 6 5 7 8 8 11 16 10 11 18 18 17 16 14 13 13 10 12 12 13 16 17 17 16 16 14 11 11 10 10 10 10 11 12 14 16 16 17 18 19 20 20
4 0 6 10 12 8 6 4 7 6 7 8 11 11 9 15 18 18 17 16 14 14 12 11 9 11 11 13 14 14 13 14 12 10 9 10 9 9 9 9 13 14 16 15 16 18 18 20 20
3 2 6 5 6 9 5 7 8 7 8 10 12 8 13 20 20 18 17 15 13 12 11 11 9 8 9 9 12 14 13 12 10 10 10 10 8 10 11 12 16 16 14 14 16 16 17 18 19
2 4 5 6 5 8 8 8 5 5 13 5 4 7 20 23 20 19 17 15 14 12 10 10 9 10 10 10 11 11 9 8 7 8 9 12 8 7 8 12 17 15 13 14 14 15 16 17 18
3 0 4 3 5 8 6 6 7 8 10 7 7 14 23 23 20 19 17 16 14 13 11 11 10 11 10 9 9 8 8 7 7 7 8 8 8 9 8 14 15 12 11 12 13 15 17 14 8
3 4 6 6 9 4 5 6 3 11 3 4 12 22 23 23 20 18 16 14 14 13 12 12 12 12 10 10 10 8 7 7 5 6 8 7 7 6 7 8 7 6 8 6 9 10 9 11 9
2 5 4 6 5 5 4 4 4 3 8 7 17 20 22 21 19 18 16 15 14 13 12 12 12 12 11 9 10 9 9 8 6 6 6 5 6 6 8 7 7 6 4 7 8 8 10 9 10
4 7 7 6 7 5 5 3 2 6 7 16 19 20 19 17 16 16 15 14 14 14 13 13 13 13 11 12 10 11 9 8 8 6 7 6 7 7 7 8 6 5 3 4 6 7 9 10 9
7 7 9 5 6 4 3 5 3 9 13 19 20 19 17 16 16 15 16 16 16 15 15 14 13 12 11 11 10 10 9 9 7 6 6 9 7 8 7 7 4 2 2 3 5 8 8 8 6
2 7 8 3 4 2 7 7 6 12 16 18 18 19 16 15 15 16 17 16 16 15 15 15 15 13 13 12 10 10 9 8 7 7 10 11 10 11 10 6 4 2 0 2 6 8 6 5 5
2 5 9 6 6 3 7 9 4 13 17 18 18 18 17 16 16 14 16 16 16 16 17 16 14 14 14 13 12 10 9 9 8 8 8 12 13 14 11 6 4 2 0 1 4 5 4 4 4
2 6 8 7 6 0 3 3 6 12 15 16 19 19 18 17 17 16 15 16 16 17 17 17 16 15 15 14 12 11 11 10 9 9 9 12 13 12 11 7 5 4 1 1 2 4 4 4 4
5 3 5 5 5 3 5 6 10 11 14 14 18 19 20 19 20 19 18 15 15 17 18 17 16 16 16 13 14 11 11 11 11 11 11 12 11 16 17 8 6 4 3 1 1 3 4 5 6
3 6 2 3 4 6 3 4 3 13 14 15 18 20 20 20 20 20 20 19 18 17 19 19 19 18 18 16 14 13 12 12 13 13 13 14 14 15 20 10 7 5 5 5 1 3 5 3 6
6 6 6 5 1 6 7 7 3 11 15 17 18 20 21 20 21 23 23 22 22 21 21 21 20 19 20 17 16 15 13 12 13 14 14 16 17 17 17 14 9 8 8 6 3 2 2 4 6
8 11 6 8 9 11 10 12 5 5 10 14 17 19 21 22 24 25 26 26 25 25 24 24 23 21 21 18 16 16 12 13 14 15 16 18 19 20 21 15 12 11 11 8 7 4 3 4 6
11 5 9 10 9 8 2 6 5 6 9 13 18 21 22 22 23 25 27 28 28 27 25 25 26 25 23 23 18 19 17 16 15 15 16 17 20 20 18 15 13 13 12 12 8 7 5 6 5
4 7 8 10 12 14 14 8 7 3 7 10 14 16 19 21 24 26 27 29 29 28 28 27 27 29 26 26 24 20 19 16 15 15 16 18 19 21 19 17 15 15 13 11 12 8 6 7 6
7 9 10 11 11 14 16 16 11 8 4 5 11 3 10 15 21 25 26 27 31 30 30 29 30 32 31 30 28 26 22 18 17 17 18 17 19 21 24 21 19 19 14 13 11 15 11 10 9
8 10 8 8 9 11 6 10 9 1 12 10 9 10 10 8 14 20 27 30 31 33 33 32 32 34 34 34 31 30 28 23 19 18 19 19 19 20 22 27 24 21 20 16 15 15 14 12 9
7 9 7 7 9 3 5 6 6 7 13 9 11 11 12 13 13 8 18 27 33 34 36 35 34 35 36 36 35 32 30 27 25 22 20 19 19 20 21 24 24 26 20 18 18 15 14 14 14
5 7 8 9 11 8 9 7 4 9 8 8 10 12 16 17 17 14 11 18 30 35 39 39 36 35 38 38 37 35 33 33 27 26 25 21 22 19 19 20 22 23 23 23 18 18 15 17 16
8 6 6 6 5 8 5 4 9 9 5 8 12 16 18 20 22 21 19 19 23 34 37 39 39 37 35 38 39 38 36 34 34 29 29 26 23 24 20 21 21 24 25 25 24 21 20 19 17
5 9 8 8 6 8 8 3 9 4 6 12 17 21 23 24 26 27 26 27 19 28 34 39 40 39 37 39 39 40 38 36 34 33 31 28 27 25 25 23 24 24 22 22 22 22 22 20 19
11 8 10 9 8 8 9 12 5 4 9 18 25 25 25 24 27 28 27 28 19 18 29 34 39 40 40 39 43 43 40 37 33 35 33 31 30 29 27 26 25 24 22 22 22 21 19 20 20